Weather History for KCCY - March, 2013

Change the Weather History Date:

Saturday, March 9, 2013

  Actual Average (KMCW) Record (KMCW)
Temperature  
Mean Temperature 35 °F 30 °F  
Max Temperature 37 °F 39 °F 59 °F (1977)
Min Temperature 33 °F 21 °F -17 °F (1984)
Degree Days  
Heating Degree Days 30 35  
Month to date heating degree days 333  
Since 1 July heating degree days 6184  
Cooling Degree Days 0 0  
Month to date cooling degree days 0  
Year to date cooling degree days 0  
Moisture  
Dew Point 34 °F    
Average Humidity 95    
Maximum Humidity 100    
Minimum Humidity 87    
Precipitation  
Precipitation 0.71 in 0.06 in 0.67 in (1909)
Month to date precipitation 0.49  
Year to date precipitation 2.31  
Snow  
Snow 0.00 in 0.20 in 9.00 in (1943)
Month to date snowfall 2.1  
Since 1 July snowfall 34.6  
Snow Depth -    
Sea Level Pressure  
Sea Level Pressure 29.85 in    
Wind  
Wind Speed 15 mph (SSE)    
Max Wind Speed 21 mph    
Max Gust Speed 30 mph    
Visibility 2 miles    
Events Fog , Rain , Snow    
T = Trace of Precipitation, MM = Missing Value Source: NWS Daily Summary

Daily Weather History Graph

Daily Weather History Graph

Search for Another Location

Airport or City:

Trip Planner

Search our weather history database for the weather conditions in past years. The results will help you decide how hot, cold, wet, or windy it might be!

Date:

Astronomy

Mar. 09, 2013 Rise Set
Actual Time 6:32 AM CST 6:09 PM CST
Civil Twilight 6:04 AM CST 6:38 PM CST
Nautical Twilight 5:31 AM CST 7:11 PM CST
Astronomical Twilight 4:58 AM CST 7:44 PM CST
Moon 4:59 AM CST (3/9) 4:10 PM CST (3/9)
Length of Visible Light 12h 34m
Length of Day
11h 37m
Waning Crescent, 5% of the Moon is Illuminated
Mar 9
Waning Crescent
Mar 11
New
Mar 19
First Quarter
Mar 27
Full
Apr 2
Last Quarter

Hourly Weather History & Observations

Time (CST) Temp. Windchill Dew Point Humidity Pressure Visibility Wind Dir Wind Speed Gust Speed Precip Events Conditions
12:15 AM 33.8 °F 22.5 °F 30.2 °F 87% 30.09 in 5.0 mi SE 19.6 mph - N/A Rain Light Rain
12:35 AM 33.8 °F 22.8 °F 30.2 °F 87% 30.08 in 5.0 mi SE 18.4 mph - N/A   Overcast
12:55 AM 33.8 °F 23.2 °F 30.2 °F 87% 30.08 in 3.0 mi SE 17.3 mph 24.2 mph N/A Rain Light Rain
1:15 AM 33.8 °F 23.2 °F 32.0 °F 93% 30.07 in 3.0 mi SE 17.3 mph 26.5 mph N/A Rain Light Rain
1:35 AM 33.8 °F 24.3 °F 32.0 °F 93% 30.07 in 2.5 mi SE 13.8 mph 21.9 mph N/A Rain Light Rain
1:55 AM 33.8 °F 24.8 °F 32.0 °F 93% 30.07 in 2.0 mi SE 12.7 mph - 0.02 in Snow Light Snow
2:15 AM 33.8 °F 25.8 °F 32.0 °F 93% 30.07 in 2.0 mi SE 10.4 mph - N/A   Overcast
2:35 AM 33.8 °F 26.4 °F 32.0 °F 93% 30.06 in 2.0 mi SE 9.2 mph - N/A   Mostly Cloudy
2:55 AM 33.8 °F 25.8 °F 32.0 °F 93% 30.04 in 2.0 mi SE 10.4 mph - 0.10 in Rain Light Rain
3:15 AM 33.8 °F 25.3 °F 32.0 °F 93% 30.03 in 2.0 mi SE 11.5 mph - N/A Snow Light Snow
3:35 AM 33.8 °F 24.8 °F 32.0 °F 93% 30.02 in 2.0 mi SE 12.7 mph - N/A Snow Light Snow
3:55 AM 33.8 °F 23.9 °F 32.0 °F 93% 30.00 in 2.0 mi ESE 15.0 mph - 0.11 in Snow Light Snow
4:15 AM 33.8 °F 23.9 °F 32.0 °F 93% 29.99 in 2.5 mi SE 15.0 mph 20.7 mph N/A Snow Light Snow
4:35 AM 33.8 °F 22.2 °F 32.0 °F 93% 29.98 in 2.5 mi SE 20.7 mph - N/A Snow Light Snow
4:55 AM 33.8 °F 22.5 °F 32.0 °F 93% 29.97 in 2.0 mi SE 19.6 mph 29.9 mph 0.14 in Snow Light Snow
5:15 AM 33.8 °F 22.2 °F 32.0 °F 93% 29.95 in 2.5 mi SE 20.7 mph 27.6 mph N/A Rain Light Rain
5:35 AM 33.8 °F 22.2 °F 32.0 °F 93% 29.95 in 2.5 mi SE 20.7 mph 26.5 mph N/A Rain Light Rain
5:55 AM 33.8 °F 22.2 °F 32.0 °F 93% 29.96 in 2.5 mi SE 20.7 mph 27.6 mph 0.06 in Snow Light Snow
6:15 AM 33.8 °F 22.8 °F 32.0 °F 93% 29.95 in 2.5 mi SSE 18.4 mph 27.6 mph N/A Rain Light Rain
6:35 AM 33.8 °F 23.2 °F 32.0 °F 93% 29.96 in 2.0 mi SSE 17.3 mph - N/A Rain Light Rain
6:55 AM 33.8 °F 23.2 °F 32.0 °F 93% 29.94 in 1.5 mi SE 17.3 mph - 0.02 in Rain Light Rain
7:15 AM 33.8 °F 23.5 °F 33.8 °F 100% 29.93 in 1.2 mi SSE 16.1 mph 23.0 mph N/A Snow Light Snow
7:35 AM 33.8 °F 23.9 °F 33.8 °F 100% 29.93 in 1.0 mi SSE 15.0 mph 21.9 mph N/A Rain Light Rain
7:55 AM 33.8 °F 24.3 °F 33.8 °F 100% 29.92 in 1.0 mi SSE 13.8 mph 20.7 mph 0.02 in   Overcast
8:15 AM 35.6 °F 26.2 °F 33.8 °F 93% 29.93 in 1.2 mi SSE 15.0 mph - N/A   Overcast
8:35 AM 35.6 °F 25.9 °F 33.8 °F 93% 29.91 in 1.2 mi SSE 16.1 mph - N/A   Overcast
8:55 AM 35.6 °F 26.2 °F 33.8 °F 93% 29.90 in 1.0 mi SSE 15.0 mph - N/A   Overcast
9:15 AM 35.6 °F 25.5 °F 33.8 °F 93% 29.89 in 0.8 mi SSE 17.3 mph 24.2 mph N/A   Overcast
9:35 AM 35.6 °F 25.9 °F 33.8 °F 93% 29.89 in 0.8 mi SSE 16.1 mph 23.0 mph N/A   Overcast
9:55 AM 35.6 °F 26.2 °F 33.8 °F 93% 29.88 in 0.5 mi SSE 15.0 mph - N/A Rain Light Rain
10:15 AM 35.6 °F 25.9 °F 33.8 °F 93% 29.86 in 1.2 mi SSE 16.1 mph 23.0 mph N/A   Overcast
10:35 AM 35.6 °F 25.2 °F 33.8 °F 93% 29.84 in 1.5 mi SE 18.4 mph 24.2 mph N/A   Overcast
10:55 AM 35.6 °F 26.2 °F 33.8 °F 93% 29.85 in 1.2 mi SSE 15.0 mph - N/A   Overcast
11:15 AM 35.6 °F 26.6 °F 33.8 °F 93% 29.84 in 1.2 mi SSE 13.8 mph - N/A   Overcast
11:35 AM 35.6 °F 25.9 °F 33.8 °F 93% 29.83 in 0.8 mi SE 16.1 mph 24.2 mph N/A   Overcast
11:55 AM 35.6 °F 25.2 °F 33.8 °F 93% 29.82 in 0.5 mi SSE 18.4 mph - N/A   Overcast
12:15 PM 35.6 °F 25.2 °F 33.8 °F 93% 29.82 in 0.8 mi SSE 18.4 mph 26.5 mph N/A   Overcast
12:35 PM 35.6 °F 25.2 °F 33.8 °F 93% 29.81 in 0.8 mi SSE 18.4 mph - N/A   Overcast
12:55 PM 35.6 °F 24.8 °F 33.8 °F 93% 29.78 in 1.0 mi SSE 19.6 mph - N/A Rain Light Rain
1:15 PM 35.6 °F 25.2 °F 33.8 °F 93% 29.77 in 1.8 mi SSE 18.4 mph 25.3 mph N/A Rain Light Rain
1:35 PM 35.6 °F 24.8 °F 33.8 °F 93% 29.75 in 2.0 mi SSE 19.6 mph - N/A Rain Light Rain
1:55 PM 35.6 °F 25.2 °F 33.8 °F 93% 29.73 in 2.0 mi SSE 18.4 mph 25.3 mph 0.02 in Snow Light Snow
2:15 PM 35.6 °F 24.8 °F 33.8 °F 93% 29.73 in 2.0 mi SSE 19.6 mph - N/A Snow Light Snow
2:35 PM 35.6 °F 24.8 °F 33.8 °F 93% 29.72 in 2.5 mi SSE 19.6 mph 25.3 mph N/A   Overcast
2:55 PM 35.6 °F 24.5 °F 33.8 °F 93% 29.71 in 2.0 mi SSE 20.7 mph - 0.06 in Snow Light Snow
3:15 PM 35.6 °F 25.2 °F 35.6 °F 100% 29.72 in 3.0 mi SSE 18.4 mph 26.5 mph N/A Rain Light Rain
3:35 PM 35.6 °F 27.1 °F 35.6 °F 100% 29.74 in 5.0 mi South 12.7 mph 18.4 mph N/A   Overcast
3:55 PM 35.6 °F 26.2 °F 33.8 °F 93% 29.74 in 5.0 mi South 15.0 mph - 0.02 in   Overcast
4:15 PM 35.6 °F 25.9 °F 35.6 °F 100% 29.74 in 5.0 mi South 16.1 mph - N/A   Overcast
4:35 PM 35.6 °F 26.6 °F 33.8 °F 93% 29.73 in 1.5 mi South 13.8 mph - N/A   Overcast
4:55 PM 35.6 °F 26.6 °F 33.8 °F 93% 29.73 in 0.8 mi South 13.8 mph - N/A Rain Light Rain
5:15 PM 35.6 °F 26.6 °F 35.6 °F 100% 29.71 in 1.0 mi SSE 13.8 mph - N/A   Overcast
5:35 PM 35.6 °F 26.2 °F 35.6 °F 100% 29.72 in 2.0 mi SSE 15.0 mph - N/A   Overcast
5:55 PM 35.6 °F 26.2 °F 35.6 °F 100% 29.72 in 1.8 mi SSE 15.0 mph - N/A   Overcast
6:15 PM 35.6 °F 27.5 °F 35.6 °F 100% 29.72 in 2.0 mi SSE 11.5 mph 18.4 mph N/A   Overcast
6:35 PM 35.6 °F 27.1 °F 35.6 °F 100% 29.72 in 2.5 mi SSE 12.7 mph - N/A   Overcast
6:55 PM 35.6 °F 26.2 °F 35.6 °F 100% 29.72 in 2.5 mi SSE 15.0 mph - N/A   Overcast
7:15 PM 35.6 °F 26.2 °F 35.6 °F 100% 29.72 in 2.0 mi South 15.0 mph - N/A   Overcast
7:35 PM 37.4 °F 29.3 °F 35.6 °F 93% 29.71 in 2.5 mi SSE 12.7 mph - N/A   Overcast
7:55 PM 35.6 °F 28.0 °F 35.6 °F 100% 29.71 in 1.8 mi SSE 10.4 mph 16.1 mph N/A   Overcast
8:15 PM 35.6 °F 28.6 °F 35.6 °F 100% 29.73 in 1.5 mi SSE 9.2 mph - N/A   Overcast
8:35 PM 35.6 °F 28.6 °F 35.6 °F 100% 29.73 in 1.5 mi SSE 9.2 mph - N/A   Overcast
8:55 PM 35.6 °F 29.2 °F 35.6 °F 100% 29.73 in 1.0 mi SSE 8.1 mph 13.8 mph N/A   Overcast
9:15 PM 35.6 °F 30.7 °F 35.6 °F 100% 29.74 in 1.2 mi SSE 5.8 mph - N/A   Overcast
9:35 PM 35.6 °F 29.9 °F 35.6 °F 100% 29.73 in 0.8 mi SE 6.9 mph - N/A   Overcast
9:55 PM 35.6 °F 29.9 °F 35.6 °F 100% 29.73 in 0.5 mi SE 6.9 mph - N/A Fog Fog
10:15 PM 35.6 °F 29.9 °F 35.6 °F 100% 29.73 in 0.5 mi SE 6.9 mph - N/A Rain Light Rain
10:35 PM 35.6 °F 31.7 °F 35.6 °F 100% 29.74 in 0.8 mi SE 4.6 mph - N/A Rain Light Rain
10:55 PM 35.6 °F 32.8 °F 35.6 °F 100% 29.73 in 0.5 mi ESE 3.5 mph - 0.06 in   Overcast
11:15 PM 35.6 °F - 35.6 °F 100% 29.73 in 0.5 mi Calm Calm - N/A Rain Light Rain
11:35 PM 35.6 °F 31.7 °F 35.6 °F 100% 29.73 in 0.5 mi NE 4.6 mph - N/A Rain Light Rain
11:55 PM 35.6 °F 29.9 °F 33.8 °F 93% 29.72 in 0.2 mi North 6.9 mph - 0.08 in Rain Light Rain